User: anonymous   Login
Location: Esp�n
(42.4593°N, 0.2047°W)
Time: 18:33:19
(UTC+00:00)
Language:

Cosmos 1315 Rocket - Orbit

View from above orbital plane
View from above orbital plane
View from above satellite
View from above satellite

Ground track
Ground track

The orbit data is extracted from the following two-line orbital elements,

1 12904U 81103B   20220.87024944  .00000382  00000-0  24572-4 0  9990
2 12904  81.1762  44.2064 0027409 246.4254 113.4090 15.05824530665516
Epoch (UTC): 07 August 2020 20:53:09
Eccentricity: 0.0027409
inclination: 81.1762°
perigee height: 530 km
apogee height: 568 km
right ascension of ascending node: 44.2064°
argument of perigee: 246.4254°
revolutions per day: 15.05824530
mean anomaly at epoch: 113.4090°
orbit number at epoch: 66551

The dashed part of the orbit path shows where the satellite is in the earth's shadow,  

DLR